Location: Albany
(35.0170°S, 117.8920°E)
Time: 17:37:07
(UTC+08:00)

Explorer 11/Cluster Stage 4 - Pass Details

Date: 30 January 2021
Orbit: 467 x 1257 km, 28.8° (Epoch: 02 March)

Event Time Altitude Azimuth Distance (km) Brightness Sun altitude
Rises 11:15:33 0° 275° (W) 3,411 9.7 67.2°
Reaches altitude 10° 11:19:10 10° 294° (WNW) 2,292 9.0 67.7°
Maximum altitude 11:22:29 17° 332° (NNW) 1,720 8.7 68.2°
Drops below altitude 10° 11:25:25 10° 12° (NNE) 1,982 9.1 68.6°
Sets 11:28:15 0° 33° (NNE) 2,754 9.7 68.9°
